This demonstration page uses our WeatherBlox Daily Observations layout. Learn more.

Left ArrowRight Arrow

39.08367, -84.50855

Hourly Observations for December 23, 2019

Temp ( °F °C ) Dew Point ( °F °C ) Humidity (%) Winds ( mph kmh ) Pressure ( in mb ) Visibility ( mi km ) Precip ( " mm )
12:41 am 00:41 Clear with Mist and Fog 29 -1.7 28 -2.2 96 96 NE 3 6 30.24 1024 2 3 N/A
12:49 am 00:49 Clear with Mist and Fog 28 -2 28 -2 100 100 N N/A 30.24 1024 6 10 N/A
12:53 am 00:53 Clear with Mist and Fog 29 -1.7 28 -2.2 96 96 N 3 6 30.21 1023 6 10 N/A
1:53 am 01:53 Clear with Mist and Fog 29 -1.7 28 -2.2 96 96 E 3 6 30.18 1022 6 10 N/A
2:53 am 02:53 Clear with Mist and Fog 27 -2.8 25 -3.9 92 92 N N/A 30.20 1023 5 8 N/A
3:53 am 03:53 Clear 25 -3.9 24 -4.4 96 96 NNE 3 6 30.19 1022 7 11 N/A
4:16 am 04:16 Clear with Mist and Fog 26 -3.3 26 -3.3 100 100 N N/A 30.22 1023 2 3 N/A
4:28 am 04:28 Clear with Mist and Fog 26 -3.3 25 -3.9 96 96 N N/A 30.22 1023 3 5 N/A
4:53 am 04:53 Clear with Mist and Fog 26 -3.3 26 -3.3 100 100 N N/A 30.20 1023 4 6 N/A
5:10 am 05:10 Mostly Clear with Mist and Fog 26 -3.3 25 -3.9 96 96 N N/A 30.23 1024 3 4 N/A
5:13 am 05:13 Mostly Cloudy with Mist and Fog 25 -3.9 25 -3.9 100 100 N N/A 30.23 1024 1 2 N/A
5:20 am 05:20 Mostly Cloudy with Freezing Fog 27 -2.8 26 -3.3 96 96 N N/A 30.22 1024 1 1 N/A
5:35 am 05:35 Mostly Clear with Mist and Fog 27 -2.8 26 -3.3 96 96 N N/A 30.22 1024 1 2 N/A
5:40 am 05:40 Mostly Clear with Mist and Fog 27 -2.8 26 -3.3 96 96 N N/A 30.22 1024 3 5 N/A
5:49 am 05:49 Clear with Mist and Fog 27 -3 27 -3 100 100 N N/A 30.22 1024 2 3 N/A
5:53 am 05:53 Clear with Mist and Fog 25 -3.9 24 -4.4 96 96 N N/A 30.20 1023 2 3 N/A
6:15 am 06:15 Clear with Mist and Fog 26 -3.3 25 -3.9 96 96 NE 3 6 30.23 1024 3 5 N/A
6:25 am 06:25 Clear with Mist and Fog 26 -3.3 25 -3.9 96 96 NE 3 6 30.23 1024 2 3 N/A
6:32 am 06:32 Clear with Mist and Fog 26 -3.3 25 -3.9 96 96 NNE 5 7 30.23 1024 3 5 N/A
6:53 am 06:53 Clear with Mist and Fog 27 -2.8 26 -3.3 96 96 NE 3 6 30.19 1022 4 6 N/A
7:53 am 07:53 Mostly Clear with Mist and Fog 27 -2.8 25 -3.9 92 92 N N/A 30.20 1023 5 8 N/A
8:53 am 08:53 Sunny 28 -2.2 26 -3.3 92 92 N N/A 30.20 1023 7 11 N/A
9:53 am 09:53 Sunny 34 1.1 32 undefined 92 92 N N/A 30.21 1023 8 13 N/A
10:53 am 10:53 Sunny 41 5 35 1.7 79 79 N N/A 30.20 1023 10 16 N/A
11:53 am 11:53 Sunny 48 8.9 38 3.3 68 68 N N/A 30.16 1021 10 16 N/A
12:53 pm 12:53 Sunny 55 12.8 40 4.4 57 57 S 3 6 30.12 1020 10 16 N/A
1:53 pm 13:53 Sunny 58 14.4 41 5 53 53 N N/A 30.10 1019 10 16 N/A
2:53 pm 14:53 Sunny 61 16.1 41 5 48 48 N N/A 30.11 1020 10 16 N/A
3:53 pm 15:53 Sunny 61 16.1 40 4.4 46 46 NNW 8 13 30.09 1019 10 16 N/A
4:53 pm 16:53 Sunny 57 13.9 39 3.9 51 51 N N/A 30.09 1019 10 16 N/A
5:53 pm 17:53 Clear 45 7.2 38 3.3 77 77 N N/A 30.11 1020 10 16 N/A
6:53 pm 18:53 Clear 39 3.9 36 2.2 89 89 E 3 6 30.11 1020 10 16 N/A
7:53 pm 19:53 Clear 35 1.7 33 0.6 93 93 ENE 3 6 30.14 1021 10 16 N/A
8:53 pm 20:53 Clear 35 1.7 33 0.6 93 93 N N/A 30.14 1021 10 16 N/A
9:53 pm 21:53 Clear 34 1.1 32 undefined 92 92 N N/A 30.14 1021 10 16 N/A
10:53 pm 22:53 Clear 31 -0.6 31 -0.6 100 100 N N/A 30.12 1020 10 16 N/A
11:00 pm 23:00 Clear with Mist and Fog 32 undefined 30 -1.1 92 92 N 3 6 30.15 1021 2 3 N/A
11:04 pm 23:04 Clear with Mist and Fog 32 undefined 30 -1.1 92 92 N N/A 30.15 1021 3 5 N/A
11:10 pm 23:10 Clear with Mist and Fog 32 undefined 31 -0.6 96 96 ENE 3 6 30.15 1021 2 3 N/A
11:21 pm 23:21 Clear with Mist and Fog 32 undefined 31 -0.6 96 96 N N/A 30.15 1021 3 5 N/A
11:50 pm 23:50 Clear with Mist and Fog 30 -1 30 -1 100 100 N N/A 30.14 1021 2 3 N/A
11:53 pm 23:53 Clear with Mist and Fog 31 -0.6 30 -1.1 96 96 N N/A 30.12 1020 1 2 N/A

Powered by AerisWeather